Maple Lake, MN

10:41 PM CDT on May 24, 2018 (GMT -0500)
Maple Lake Municipal

Weather History for KMGG - March, 2013

Change the Weather History Date:

Sunday, March 3, 2013

  Actual Average (WUND) Record (WUND)
Temperature  
Mean Temperature 24 °F -  
Max Temperature 32 °F - - (-1)
Min Temperature 16 °F - - (-1)
Degree Days  
Heating Degree Days 41    
Moisture  
Dew Point 12 °F    
Average Humidity 58    
Maximum Humidity 75    
Minimum Humidity 39    
Precipitation  
Precipitation 0.00 in - - ()
Sea Level Pressure  
Sea Level Pressure 30.03 in    
Wind  
Wind Speed 5 mph (ESE)    
Max Wind Speed 12 mph    
Max Gust Speed 17 mph    
Visibility 10 miles    
Events      
Averages and records for this station are not official NWS values.
T = Trace of Precipitation, MM = Missing Value Source: NWS Daily Summary

Daily Weather History Graph

Daily Weather History Graph

Search for Another Location

Airport or City:

Astronomy

Mar. 03, 2013 Rise Set
Actual Time 6:49 AM CST 6:06 PM CST
Civil Twilight 6:20 AM CST 6:35 PM CST
Nautical Twilight 5:46 AM CST 7:09 PM CST
Astronomical Twilight 5:12 AM CST 7:44 PM CST
Moon 12:03 AM CST (3/3) 9:47 AM CST (3/3)
Length of Visible Light 12h 15m
Length of Day
11h 16m
Waning Gibbous, 63% of the Moon is Illuminated
Mar 3
Waning Gibbous
Mar 4
Last Quarter
Mar 11
New
Mar 19
First Quarter
Mar 27
Full

Hourly Weather History & Observations

Time (CST) Temp. Windchill Dew Point Humidity Pressure Visibility Wind Dir Wind Speed Gust Speed Precip Events Conditions
12:16 AM 21.2 °F 16.4 °F 14.2 °F 74% 30.14 in 10.0 mi SE 3.5 mph - N/A   Overcast
12:35 AM 21.2 °F 14.9 °F 14.0 °F 74% 30.13 in 10.0 mi SE 4.6 mph - N/A   Overcast
12:56 AM 21.2 °F 16.4 °F 13.8 °F 73% 30.12 in 10.0 mi SE 3.5 mph - N/A   Overcast
1:35 AM 21.2 °F 16.4 °F 14.4 °F 75% 30.12 in 10.0 mi SE 3.5 mph - N/A   Overcast
1:56 AM 21.2 °F - 14.2 °F 74% 30.12 in 10.0 mi Calm Calm - N/A   Overcast
2:16 AM 21.2 °F - 13.8 °F 73% 30.12 in 10.0 mi Calm Calm - N/A   Overcast
2:35 AM 21.0 °F - 13.6 °F 73% 30.11 in 10.0 mi Calm Calm - N/A   Overcast
2:55 AM 21.0 °F 16.2 °F 13.5 °F 73% 30.11 in 10.0 mi SE 3.5 mph - N/A   Overcast
3:15 AM 20.8 °F 16.0 °F 13.8 °F 74% 30.10 in 10.0 mi ESE 3.5 mph - N/A   Overcast
3:36 AM 21.2 °F 16.4 °F 13.5 °F 72% 30.10 in 10.0 mi East 3.5 mph - N/A   Overcast
3:56 AM 21.2 °F 16.4 °F 13.3 °F 72% 30.09 in 10.0 mi SE 3.5 mph - N/A   Overcast
4:15 AM 21.0 °F 16.2 °F 13.1 °F 71% 30.08 in 10.0 mi SE 3.5 mph - N/A   Overcast
4:35 AM 20.3 °F 13.8 °F 12.4 °F 71% 30.08 in 10.0 mi SE 4.6 mph - N/A   Overcast
4:56 AM 19.4 °F 12.8 °F 10.6 °F 69% 30.08 in 10.0 mi ESE 4.6 mph - N/A   Scattered Clouds
5:16 AM 18.7 °F 11.9 °F 9.7 °F 68% 30.08 in 10.0 mi ESE 4.6 mph - N/A   Clear
6:15 AM 18.9 °F 13.7 °F 9.5 °F 67% 30.08 in 10.0 mi ESE 3.5 mph - N/A   Overcast
6:55 AM 17.4 °F - 9.1 °F 70% 30.09 in 10.0 mi Calm Calm - N/A   Scattered Clouds
7:15 AM 16.5 °F 11.0 °F 8.4 °F 70% 30.09 in 10.0 mi East 3.5 mph - N/A   Clear
7:36 AM 17.2 °F 11.9 °F 8.4 °F 68% 30.09 in 10.0 mi ESE 3.5 mph - N/A   Scattered Clouds
7:55 AM 18.9 °F 12.1 °F 9.5 °F 67% 30.09 in 10.0 mi ESE 4.6 mph - N/A   Overcast
8:15 AM 19.8 °F 11.9 °F 10.6 °F 68% 30.08 in 10.0 mi ESE 5.8 mph - N/A   Overcast
8:36 AM 20.8 °F 12.1 °F 10.4 °F 64% 30.08 in 10.0 mi ESE 6.9 mph - N/A   Scattered Clouds
8:56 AM 22.3 °F 12.2 °F 10.4 °F 60% 30.08 in 10.0 mi ESE 9.2 mph - N/A   Scattered Clouds
9:15 AM 23.0 °F 12.4 °F 10.9 °F 60% 30.07 in 10.0 mi ESE 10.4 mph - N/A   Mostly Cloudy
9:36 AM 23.9 °F 15.0 °F 10.9 °F 58% 30.07 in 10.0 mi ESE 8.1 mph - N/A   Overcast
9:55 AM 25.0 °F 16.3 °F 11.5 °F 57% 30.07 in 10.0 mi ESE 8.1 mph - N/A   Overcast
10:16 AM 26.2 °F 16.4 °F 10.6 °F 52% 30.06 in 10.0 mi ESE 10.4 mph - N/A   Overcast
10:35 AM 27.0 °F 18.0 °F 12.0 °F 53% 30.06 in 10.0 mi ESE 9.2 mph - N/A   Overcast
10:56 AM 27.9 °F 19.8 °F 12.0 °F 52% 30.06 in 10.0 mi ESE 8.1 mph - N/A   Overcast
11:15 AM 29.1 °F 19.4 °F 10.2 °F 45% 30.05 in 10.0 mi SE 11.5 mph 17.3 mph N/A   Mostly Cloudy
11:35 AM 28.9 °F 20.4 °F 11.3 °F 48% 30.05 in 10.0 mi SE 9.2 mph - N/A   Mostly Cloudy
11:56 AM 30.6 °F 22.4 °F 11.8 °F 46% 30.04 in 10.0 mi SE 9.2 mph - N/A   Mostly Cloudy
12:16 PM 30.0 °F 23.2 °F 11.7 °F 46% 30.03 in 10.0 mi ESE 6.9 mph - N/A   Mostly Cloudy
12:35 PM 31.6 °F 22.6 °F 12.0 °F 44% 30.03 in 10.0 mi ESE 11.5 mph - N/A   Scattered Clouds
12:55 PM 31.5 °F 23.5 °F 9.7 °F 40% 30.02 in 10.0 mi ESE 9.2 mph - N/A   Scattered Clouds
1:16 PM 31.6 °F 23.7 °F 9.9 °F 40% 30.01 in 10.0 mi ESE 9.2 mph - N/A   Mostly Cloudy
1:35 PM 32.0 °F 24.8 °F 9.3 °F 39% 30.00 in 10.0 mi SE 8.1 mph - N/A   Mostly Cloudy
1:56 PM 32.7 °F 24.5 °F 11.3 °F 41% 30.00 in 10.0 mi SE 10.4 mph 17.3 mph N/A   Clear
2:36 PM 32.0 °F 24.2 °F 9.5 °F 39% 29.98 in 10.0 mi SE 9.2 mph - N/A   Clear
2:55 PM 32.0 °F 24.2 °F 11.1 °F 42% 29.98 in 10.0 mi SE 9.2 mph - N/A   Clear
3:35 PM 32.0 °F 24.2 °F 9.7 °F 39% 29.98 in 10.0 mi SE 9.2 mph - N/A   Clear
4:15 PM 31.8 °F 25.4 °F 10.6 °F 41% 29.97 in 10.0 mi SE 6.9 mph - N/A   Clear
4:36 PM 31.1 °F 25.4 °F 11.7 °F 45% 29.97 in 10.0 mi ESE 5.8 mph - N/A   Clear
4:56 PM 30.2 °F 23.4 °F 12.2 °F 47% 29.97 in 10.0 mi ESE 6.9 mph - N/A   Clear
5:15 PM 29.3 °F 21.5 °F 12.0 °F 49% 29.97 in 10.0 mi East 8.1 mph - N/A   Clear
5:35 PM 29.1 °F 22.1 °F 11.7 °F 48% 29.97 in 10.0 mi East 6.9 mph - N/A   Mostly Cloudy
5:55 PM 28.4 °F 20.4 °F 11.8 °F 50% 29.97 in 10.0 mi ESE 8.1 mph - N/A   Scattered Clouds
6:15 PM 27.7 °F 21.3 °F 11.8 °F 51% 29.98 in 10.0 mi ESE 5.8 mph - N/A   Clear
6:36 PM 27.3 °F 19.1 °F 11.8 °F 52% 29.98 in 10.0 mi East 8.1 mph - N/A   Mostly Cloudy
6:55 PM 27.5 °F 19.3 °F 12.6 °F 54% 29.98 in 10.0 mi ESE 8.1 mph - N/A   Overcast
7:16 PM 27.9 °F 18.4 °F 12.6 °F 53% 29.97 in 10.0 mi ESE 10.4 mph - N/A   Overcast
7:36 PM 27.9 °F 21.5 °F 12.7 °F 53% 29.98 in 10.0 mi ESE 5.8 mph - N/A   Overcast
7:55 PM 27.3 °F 19.9 °F 13.8 °F 57% 29.98 in 10.0 mi East 6.9 mph - N/A   Overcast
8:15 PM 27.1 °F 19.7 °F 13.8 °F 57% 29.98 in 10.0 mi East 6.9 mph - N/A   Overcast
8:36 PM 26.1 °F 18.4 °F 14.0 °F 60% 29.98 in 10.0 mi East 6.9 mph - N/A   Overcast
8:55 PM 25.7 °F 17.1 °F 14.0 °F 61% 29.98 in 10.0 mi East 8.1 mph - N/A   Overcast
9:15 PM 25.7 °F 17.1 °F 14.2 °F 62% 29.97 in 10.0 mi East 8.1 mph - N/A   Overcast
9:36 PM 25.7 °F 16.4 °F 14.2 °F 62% 29.97 in 10.0 mi East 9.2 mph - N/A   Overcast
9:55 PM 25.7 °F 17.1 °F 14.0 °F 61% 29.95 in 10.0 mi East 8.1 mph - N/A   Mostly Cloudy
10:15 PM 25.7 °F 18.0 °F 14.0 °F 61% 29.95 in 10.0 mi East 6.9 mph - N/A   Scattered Clouds
10:36 PM 25.7 °F 18.0 °F 14.0 °F 61% 29.95 in 10.0 mi East 6.9 mph - N/A   Mostly Cloudy
10:55 PM 26.1 °F 19.4 °F 13.6 °F 59% 29.96 in 10.0 mi East 5.8 mph - N/A   Scattered Clouds
11:15 PM 26.4 °F 19.8 °F 13.5 °F 58% 29.96 in 10.0 mi ESE 5.8 mph - N/A   Mostly Cloudy
11:36 PM 26.8 °F 21.4 °F 13.1 °F 56% 29.97 in 10.0 mi SE 4.6 mph - N/A   Overcast
11:55 PM 26.6 °F 21.2 °F 14.7 °F 61% 29.97 in 10.0 mi SE 4.6 mph - N/A   Overcast